[[{"header":{"parameterUnit":"m.s-1","parameterCategory":1,"la1":30.2991,"la2":30.254,"lo1":-89.0895,"lo2":-89.0444,"dy":0.0017,"dx":0.0017,"nx":28,"ny":28,"refTime":"2023-09-01T09:00:00:Z","depth":0,"parameterNumber":2,"parameterNumberName":"U-component_of_WINDS"},"data":[0,0,0,0,0,0,0,0,0,0,0,0,0,0,0,0,0,0,0,0,0,0,0,0,0,0,0,0,0,0,0,0,0,0,0,0,0,0,0,0,0,0,0,0,0,0,0,0,0,0,0,0,0,0,0,0,0,0,-0.7515,-0.7516,0,-0.7538,-0.7538,-0.7539,-0.7517,-0.7516,-0.7515,-0.7514,-0.7539,-0.754,-0.7542,0,0,0,0,0,0,0,0,0,0,0,0,0,-0.7454,-0.7455,-0.7515,-0.7516,-0.7516,-0.7538,-0.7538,-0.7539,-0.7517,-0.7516,-0.7515,-0.7514,-0.7538,-0.754,-0.7542,0,0,0,0,0,0,0,0,0,0,0,0,0,-0.7479,-0.7455,-0.7515,-0.7508,-0.7507,-0.7538,-0.7538,-0.7539,-0.7517,-0.7516,-0.7515,-0.7514,-0.7538,-0.754,-0.7542,-0.7582,0,0,-0.7549,-0.755,0,0,0,0,0,0,0,0,-0.7477,-0.7481,-0.7509,-0.7508,-0.7508,-0.7523,-0.7526,-0.7553,-0.7518,-0.7514,-0.7514,-0.7513,-0.7535,-0.7537,-0.7544,-0.7583,-0.7584,-0.7549,-0.755,-0.7551,-0.7552,0,0,0,0,0,0,0,-0.7476,-0.748,-0.7524,-0.7509,-0.7509,-0.7503,-0.7506,-0.7531,-0.7531,-0.7514,-0.7512,-0.7515,-0.7534,-0.7542,-0.7545,-0.7584,-0.7549,-0.7551,-0.7552,-0.7553,-0.7656,-0.7657,0,0,0,0,0,0,-0.7475,-0.7479,-0.7524,-0.7525,-0.7489,-0.7506,-0.7508,-0.752,-0.7531,-0.7531,-0.7516,-0.7514,-0.7539,-0.7542,-0.7546,-0.7592,-0.7551,-0.7553,-0.7555,-0.7654,-0.7656,-0.7657,0,0,0,0,0,0,-0.7473,-0.7479,-0.7523,-0.7501,-0.7507,-0.7508,-0.7521,-0.7521,-0.7529,-0.7533,-0.7533,-0.7524,-0.7538,-0.7543,-0.7573,-0.7592,-0.7554,-0.7556,-0.7653,-0.7655,-0.7657,-0.7685,0,0,0,0,0,0,-0.7472,-0.7479,-0.7493,-0.7502,-0.7508,-0.7549,-0.7523,-0.7522,-0.7532,-0.753,-0.754,-0.7541,-0.7538,-0.757,-0.7575,-0.7595,-0.7558,-0.7651,-0.7654,-0.7656,-0.7682,-0.7688,-0.7693,0,0,0,0,0,-0.747,-0.7501,-0.7494,-0.75,-0.7526,-0.755,-0.7554,-0.7549,-0.7534,-0.7549,-0.7552,-0.754,-0.759,-0.7573,-0.7579,-0.7599,-0.765,-0.7653,-0.7656,-0.768,-0.7687,-0.7693,0,0,0,0,0,0,-0.7495,-0.7502,-0.7495,-0.753,-0.754,-0.7547,-0.7565,-0.7557,-0.7571,-0.7568,-0.7562,-0.7565,-0.7597,-0.7601,-0.7582,-0.7638,-0.7617,-0.7622,-0.7634,-0.764,-0.7645,-0.7643,-0.756,0,0,0,0,0,-0.7505,-0.7524,-0.7529,-0.7559,-0.7564,-0.7564,-0.7574,-0.757,-0.758,-0.7584,-0.7589,-0.76,-0.7617,-0.7629,-0.7646,-0.7683,-0.7685,-0.7701,-0.7706,-0.771,-0.7714,-0.7733,-0.774,-0.7668,-0.7668,-0.7668,0,0,-0.7525,-0.7531,-0.7543,-0.7564,-0.7571,-0.7591,-0.7568,-0.759,-0.7604,-0.7588,-0.7616,-0.762,-0.7631,-0.7665,-0.768,-0.767,-0.7734,-0.7714,-0.7717,-0.7719,-0.7737,-0.7744,-0.775,-0.767,-0.767,-0.7669,0,0,-0.7572,-0.7578,-0.7604,-0.7612,-0.7622,-0.7622,-0.7628,-0.7637,-0.7638,-0.7667,-0.7655,-0.7672,-0.7703,-0.7711,-0.772,-0.7769,-0.7759,-0.7775,-0.7801,-0.782,-0.7826,-0.7831,-0.7847,-0.7853,-0.7779,-0.7779,-0.7779,0,-0.7595,-0.7624,-0.7618,-0.7641,-0.765,-0.7636,-0.7662,-0.7669,-0.7686,-0.7692,-0.7681,-0.7718,-0.7725,-0.776,-0.7772,-0.778,-0.7786,-0.7773,-0.7825,-0.783,-0.7835,-0.7851,-0.7857,-0.778,-0.778,-0.778,-0.778,0,-0.7652,-0.7672,-0.7692,-0.7706,-0.7718,-0.7742,-0.774,-0.7753,-0.7748,-0.7749,-0.7777,-0.7785,-0.7802,-0.7811,-0.7806,-0.7845,-0.7838,-0.7826,-0.7805,-0.7843,-0.7858,-0.7864,-0.7783,-0.7782,-0.7782,-0.7781,0,0,-0.7715,-0.7726,-0.7734,-0.774,-0.7751,-0.7766,-0.779,-0.7806,-0.7817,-0.7828,-0.7847,-0.7874,-0.7862,-0.7872,-0.7868,-0.7885,-0.7922,-0.787,-0.7871,-0.7879,-0.7964,-0.7973,-0.798,-0.7916,-0.7917,-0.7918,-0.7963,0,-0.7761,-0.7801,-0.7796,-0.7834,-0.7852,-0.7839,-0.786,-0.7869,-0.787,-0.7886,-0.7888,-0.7906,-0.789,-0.7896,-0.7912,-0.7914,-0.7939,-0.7911,-0.7933,-0.7934,-0.793,-0.7988,-0.7997,-0.8039,-0.7969,-0.797,-0.7971,0,-0.782,-0.7833,-0.7872,-0.788,-0.7887,-0.7905,-0.792,-0.7935,-0.7945,-0.7945,-0.7955,-0.7948,-0.7972,-0.7951,-0.7983,-0.7964,-0.7972,-0.7975,-0.7977,-0.7978,-0.7954,-0.7989,-0.8052,-0.8058,-0.798,-0.7979,-0.7979,0,-0.7861,-0.7888,-0.7915,-0.7921,-0.7931,-0.7944,-0.7948,-0.7957,-0.7967,-0.798,-0.7986,-0.8002,-0.801,-0.8023,-0.802,-0.8006,-0.8053,-0.8032,-0.8053,-0.8053,-0.8063,-0.8062,-0.8127,-0.807,-0.807,-0.807,-0.807,0,-0.7912,-0.7936,-0.7933,-0.795,-0.7977,-0.7972,-0.7999,-0.8002,-0.8009,-0.8026,-0.8016,-0.8033,-0.8029,-0.8045,-0.8043,-0.8069,-0.8074,-0.8074,-0.8073,-0.8074,-0.8074,-0.8079,-0.8076,-0.8072,-0.8071,-0.8071,-0.8071,0,-0.7962,-0.796,-0.7989,-0.7995,-0.7998,-0.8017,-0.8023,-0.8038,-0.8039,-0.8061,-0.8065,-0.8067,-0.8085,-0.8084,-0.8105,-0.8104,-0.8135,-0.8132,-0.8132,-0.8131,-0.8152,-0.8149,-0.8222,-0.823,-0.8169,-0.8169,-0.817,0,-0.7994,-0.8012,-0.8021,-0.8031,-0.8036,-0.8053,-0.8063,-0.8059,-0.807,-0.8082,-0.8096,-0.8113,-0.8127,-0.8157,-0.816,-0.8175,-0.8171,-0.8196,-0.8174,-0.8174,-0.8171,-0.8169,-0.8171,-0.82,-0.82,-0.8201,-0.8201,0,-0.8051,-0.805,-0.8064,-0.8078,-0.809,-0.8102,-0.8112,-0.8121,-0.8118,-0.813,-0.8149,-0.8159,-0.818,-0.8197,-0.8212,-0.8217,-0.8209,-0.8208,-0.8214,-0.8215,-0.8214,-0.8214,-0.8143,-0.8206,-0.8206,-0.8206,-0.8205,-0.8205,-0.8093,-0.8108,-0.8116,-0.8132,-0.8139,-0.8149,-0.8164,-0.8166,-0.8181,-0.8197,-0.8194,-0.8214,-0.8223,-0.8242,-0.8249,-0.8264,-0.8256,-0.8264,-0.8266,-0.8268,-0.827,-0.8212,-0.8267,-0.8267,-0.8267,-0.8267,-0.8267,0,-0.8149,-0.8153,-0.8168,-0.8182,-0.8195,-0.8186,-0.8196,-0.8208,-0.8225,-0.8234,-0.8248,-0.8268,-0.8285,-0.8289,-0.8304,-0.8316,-0.8313,-0.832,-0.8319,-0.832,-0.8277,-0.827,-0.8323,-0.8323,-0.8323,-0.8323,-0.8323,-0.8323,-0.8179,-0.8204,-0.8204,-0.8232,-0.8236,-0.8256,-0.8262,-0.8271,-0.8278,-0.8301,-0.8315,-0.8317,-0.8324,-0.834,-0.8355,-0.8355,-0.8361,-0.837,-0.837,-0.8329,-0.8323,-0.8318,-0.8311,-0.8372,-0.8372,-0.8411,-0.8411,-0.8412]},{"header":{"parameterUnit":"m.s-1","parameterCategory":1,"la1":30.2991,"la2":30.254,"lo1":-89.0895,"lo2":-89.0444,"dy":0.0017,"dx":0.0017,"nx":28,"ny":28,"refTime":"2023-09-01T09:00:00:Z","depth":0,"parameterNumber":3,"parameterNumberName":"V-component_of_WINDS"},"data":[0,0,0,0,0,0,0,0,0,0,0,0,0,0,0,0,0,0,0,0,0,0,0,0,0,0,0,0,0,0,0,0,0,0,0,0,0,0,0,0,0,0,0,0,0,0,0,0,0,0,0,0,0,0,0,0,0,0,2.1439,2.144,0,2.1516,2.1517,2.1518,2.1598,2.1599,2.16,2.1601,2.1674,2.1675,2.1676,0,0,0,0,0,0,0,0,0,0,0,0,0,2.1354,2.1355,2.1439,2.144,2.1441,2.1516,2.1517,2.1518,2.1598,2.1599,2.16,2.1602,2.1674,2.1675,2.1676,0,0,0,0,0,0,0,0,0,0,0,0,0,2.1407,2.1356,2.1439,2.149,2.1495,2.1515,2.1517,2.1518,2.1597,2.1599,2.1601,2.1602,2.1674,2.1675,2.1676,2.1651,0,0,2.1681,2.1681,0,0,0,0,0,0,0,0,2.1404,2.141,2.1481,2.1486,2.1492,2.1549,2.1514,2.1562,2.1597,2.1558,2.1601,2.1603,2.1631,2.1636,2.1647,2.1654,2.1658,2.1681,2.1682,2.1682,2.1682,0,0,0,0,0,0,0,2.14,2.1407,2.1469,2.1482,2.1489,2.1507,2.1516,2.1524,2.1584,2.1562,2.1568,2.1576,2.1634,2.1645,2.1649,2.1659,2.1681,2.1682,2.1683,2.1683,2.1648,2.1646,0,0,0,0,0,0,2.139,2.1403,2.1467,2.1471,2.1451,2.1507,2.1517,2.1529,2.1584,2.1594,2.1575,2.158,2.1642,2.1647,2.1652,2.1625,2.1682,2.1683,2.1684,2.165,2.1647,2.1646,0,0,0,0,0,0,2.1387,2.1394,2.1464,2.1439,2.1449,2.1507,2.1519,2.153,2.1541,2.1594,2.1605,2.1575,2.1643,2.165,2.1651,2.1629,2.1684,2.1685,2.1652,2.1649,2.1646,2.1571,0,0,0,0,0,0,2.1385,2.1393,2.1386,2.1438,2.145,2.1463,2.1518,2.153,2.1543,2.1551,2.1597,2.1606,2.1645,2.1648,2.1652,2.1631,2.1686,2.1654,2.165,2.1647,2.1576,2.1566,2.1558,0,0,0,0,0,2.1381,2.1361,2.1385,2.1392,2.1443,2.1462,2.1468,2.1515,2.1541,2.1533,2.1567,2.1605,2.163,2.1648,2.1653,2.1632,2.1655,2.1651,2.1648,2.158,2.1568,2.1558,0,0,0,0,0,0,2.1302,2.1368,2.1396,2.1392,2.1421,2.1475,2.1466,2.1501,2.1521,2.1527,2.1583,2.1592,2.1586,2.1609,2.1627,2.1609,2.1648,2.1645,2.1595,2.1584,2.1575,2.157,2.1687,0,0,0,0,0,2.1284,2.1296,2.1353,2.1344,2.1357,2.1409,2.1419,2.1452,2.1483,2.1495,2.153,2.1557,2.1571,2.1579,2.1595,2.1579,2.159,2.1568,2.1559,2.1551,2.1548,2.154,2.153,2.1633,2.1633,2.1633,0,0,2.1247,2.1285,2.1289,2.1329,2.1355,2.1364,2.1418,2.1426,2.1432,2.1496,2.1499,2.1525,2.1559,2.1551,2.1549,2.157,2.1522,2.1546,2.154,2.154,2.1535,2.1525,2.1516,2.163,2.163,2.1631,0,0,2.1185,2.1215,2.1211,2.1236,2.1275,2.131,2.1308,2.1357,2.1377,2.1382,2.1429,2.1436,2.146,2.1482,2.1496,2.144,2.1475,2.1443,2.1396,2.1388,2.138,2.1373,2.1352,2.1344,2.1439,2.1439,2.1439,0,2.1134,2.1151,2.1203,2.1208,2.1223,2.1282,2.1277,2.1298,2.1339,2.1347,2.137,2.14,2.1427,2.1425,2.1411,2.1421,2.142,2.1438,2.1378,2.1371,2.1365,2.1346,2.1338,2.1435,2.1436,2.1436,2.1436,0,2.1086,2.1097,2.1088,2.1128,2.1142,2.1141,2.1191,2.1199,2.123,2.1262,2.1264,2.1299,2.1322,2.1324,2.1355,2.1325,2.1337,2.1368,2.1408,2.1351,2.1333,2.1326,2.1429,2.1431,2.1432,2.1433,0,0,2.0976,2.1045,2.1041,2.1059,2.1106,2.1115,2.1115,2.114,2.1145,2.117,2.1172,2.1189,2.1218,2.1234,2.1267,2.126,2.1212,2.1292,2.1294,2.1275,2.1181,2.1157,2.1148,2.1236,2.1234,2.1233,2.1178,0,2.0921,2.0929,2.0975,2.0968,2.0978,2.1034,2.1034,2.1061,2.109,2.1101,2.1132,2.1144,2.1182,2.1191,2.1187,2.1219,2.1194,2.1224,2.1235,2.1235,2.1225,2.1139,2.1114,2.106,2.1171,2.117,2.1169,0,2.0859,2.0882,2.0877,2.0923,2.0929,2.0929,2.0954,2.0964,2.0996,2.1017,2.1034,2.1072,2.1074,2.1111,2.1113,2.1133,2.114,2.1156,2.1155,2.1158,2.1199,2.1138,2.1044,2.1035,2.1159,2.116,2.1161,0,2.0778,2.0808,2.0809,2.0823,2.0877,2.0875,2.0897,2.0931,2.0942,2.0963,2.0971,2.0991,2.1002,2.1016,2.1058,2.1082,2.1055,2.1096,2.1071,2.107,2.1063,2.1063,2.0968,2.1068,2.1068,2.1068,2.1068,0,2.0712,2.0706,2.0774,2.0774,2.0768,2.082,2.0812,2.0839,2.0868,2.0873,2.0922,2.0925,2.0979,2.0988,2.102,2.1016,2.1021,2.1037,2.1045,2.1033,2.103,2.1038,2.1043,2.1066,2.1067,2.1067,2.1067,0,2.0622,2.0667,2.0671,2.0722,2.0734,2.0727,2.077,2.0771,2.0803,2.0808,2.0812,2.0861,2.0873,2.0916,2.0939,2.096,2.0946,2.0963,2.0936,2.0941,2.0914,2.0916,2.082,2.081,2.0916,2.0915,2.0914,0,2.0577,2.0574,2.0624,2.0632,2.0652,2.0663,2.0675,2.0725,2.0735,2.077,2.0766,2.0783,2.0799,2.0816,2.0853,2.087,2.0887,2.0852,2.089,2.0876,2.0886,2.0885,2.0885,2.0844,2.0842,2.0841,2.084,0,2.0491,2.0514,2.053,2.0554,2.0567,2.0588,2.0611,2.0614,2.0669,2.0678,2.0692,2.0704,2.0728,2.0743,2.0766,2.0787,2.0822,2.0828,2.0823,2.081,2.0794,2.0802,2.0913,2.083,2.0831,2.0832,2.0833,2.0833,2.0422,2.0422,2.0457,2.0473,2.0496,2.0516,2.052,2.0552,2.0565,2.0589,2.0617,2.0628,2.0657,2.0692,2.071,2.0717,2.0737,2.073,2.0728,2.0725,2.0719,2.0793,2.0722,2.0722,2.0722,2.0723,2.0723,0,2.0339,2.0364,2.0379,2.041,2.0422,2.0456,2.0483,2.049,2.05,2.0525,2.054,2.0555,2.057,2.0607,2.0625,2.0624,2.064,2.0627,2.0627,2.0631,2.0701,2.0703,2.0613,2.0613,2.0613,2.0613,2.0613,2.0613,2.0297,2.0298,2.0324,2.0335,2.036,2.0372,2.0385,2.0403,2.0424,2.0439,2.0452,2.0477,2.0507,2.0527,2.0541,2.0552,2.0556,2.0536,2.0552,2.0616,2.0626,2.0636,2.0639,2.0537,2.0537,2.0482,2.0481,2.0481]}]]